SP6DW-13 Weather Reports


time (UTC)temp
F
wind
direction
speed
knots
gust
knots
rain 1hr
in
rain 24hr
in
rain mn
in
humidity
%
barometer
mb
20260506092028 63 153 1.7 7.8 0.00 0.22 0.22 70 1007.9
20260506091020 61 145 1.7 6.1 0.00 0.22 0.22 73 1007.8
20260506090016 61 145 3.5 8.7 0.00 0.22 0.22 74 1007.9
20260506085015 61 160 2.6 7.8 0.00 0.22 0.22 73 1007.7
20260506084028 60 158 2.6 7.8 0.00 0.22 0.22 75 1007.5
20260506083016 60 161 2.6 7.0 0.00 0.22 0.22 75 1007.5
20260506082016 61 357 3.5 11.3 0.00 0.22 0.22 74 1007.5
20260506081016 61 57 1.7 6.1 0.00 0.22 0.22 74 1007.2
20260506073016 58 155 3.5 7.8 0.00 0.22 0.22 79 1007.2
20260506072015 58 122 1.7 6.1 0.00 0.22 0.22 81 1007.2
20260506071043 58 173 3.5 7.8 0.00 0.22 0.22 81 1007.2
20260506062016 57 148 1.7 6.1 0.00 0.22 0.22 84 1007.5
20260506061019 57 154 0.9 7.8 0.00 0.22 0.22 84 1007.5
20260506051015 56 126 0.9 2.6 0.00 0.22 0.22 87 1007.1
20260506045015 55 151 0.9 3.5 0.00 0.22 0.22 89 1006.9
20260506044016 55 144 1.7 7.0 0.00 0.22 0.22 89 1006.8
20260506043016 55 160 1.7 3.5 0.00 0.22 0.22 89 1006.8
20260506042027 55 148 2.6 6.1 0.00 0.22 0.22 90 1006.8
20260506041025 54 153 2.6 6.1 0.00 0.22 0.22 91 1006.8
20260506040028 54 168 3.5 7.0 0.00 0.22 0.22 91 1006.7
20260506035016 55 148 2.6 6.1 0.00 0.22 0.22 91 1006.7
20260506034016 54 133 0.9 3.5 0.00 0.22 0.22 92 1006.8
20260506033016 54 38 1.7 5.2 0.00 0.22 0.22 94 1007.0
20260506032025 54 77 0.0 1.7 0.00 0.22 0.22 94 1006.9
20260506031023 54 67 0.0 1.7 0.00 0.22 0.22 95 1006.9
20260506030016 54 40 0.9 2.6 0.00 0.22 0.22 95 1006.9
20260506025020 54 69 0.0 1.7 0.00 0.22 0.22 95 1007.0
20260506024015 54 62 0.0 0.9 0.00 0.22 0.22 95 1006.9
20260506023026 54 72 0.0 0.9 0.00 0.22 0.22 95 1007.0
20260506022016 54 80 0.0 1.7 0.00 0.22 0.22 95 1006.9
20260506021019 55 117 0.0 0.9 0.00 0.22 0.22 95 1006.8
20260506020018 55 106 0.0 0.9 0.00 0.22 0.22 95 1006.8
20260506015015 55 0.0 0.0 0.00 0.22 0.22 95 1006.7
20260506014016 55 0.0 0.0 0.01 0.22 0.22 95 1006.7
20260506013016 54 0.0 0.0 0.01 0.22 0.22 95 1006.9
20260506012016 55 80 0.9 0.9 0.02 0.22 0.22 94 1006.8
20260506011033 55 0.0 0.0 0.03 0.22 0.22 94 1007.0
20260506010035 55 116 0.0 0.9 0.06 0.22 0.22 94 1007.1
20260506005016 55 128 0.0 1.7 0.10 0.22 0.22 94 1007.1
20260506004015 55 130 0.9 2.6 0.12 0.21 0.21 94 1007.1
20260506003027 55 126 0.9 1.7 0.14 0.21 0.21 94 1007.4
20260506002028 55 116 0.0 0.9 0.13 0.20 0.20 94 1007.6
20260506001035 55 117 0.0 1.7 0.13 0.19 0.19 93 1007.9
20260506000015 56 103 0.0 0.9 0.10 0.16 0.16 92 1008.2
20260505235015 56 110 0.0 0.9 0.06 0.12 0.12 91 1008.3
20260505234021 56 71 0.9 1.7 0.04 0.09 0.09 90 1008.1
20260505233016 57 47 0.9 3.5 0.03 0.07 0.07 91 1008.3
20260505232015 56 43 0.9 3.5 0.07 0.07 0.07 92 1008.1
20260505231016 56 15 0.9 2.6 0.06 0.06 0.06 93 1008.0
20260505230016 57 26 1.7 5.2 0.06 0.06 0.06 93 1008.1
20260505225021 57 23 1.7 5.2 0.06 0.06 0.06 92 1008.3
20260505224016 57 52 0.9 5.2 0.05 0.05 0.05 91 1008.2
20260505223039 59 65 0.9 3.5 0.04 0.04 0.04 87 1008.0
20260505222015 59 161 1.7 5.2 0.00 0.00 0.00 84 1008.1
20260505221027 59 85 0.9 2.6 0.00 0.00 0.00 83 1006.9
20260505220016 59 138 1.7 6.1 0.00 0.00 0.00 83 1006.3
20260505215016 59 162 3.5 6.1 0.00 0.00 0.00 83 1006.3
20260505214016 60 157 2.6 6.1 0.00 0.00 0.00 81 1006.7
20260505213038 60 153 0.9 1.7 0.00 0.00 0.00 79 1006.9
20260505212538 60 124 0.9 3.5 0.00 0.00 0.00 79 1006.8
20260505211516 61 148 1.7 5.2 0.00 0.00 0.00 78 1006.7
20260505210526 61 142 0.9 2.6 0.00 0.00 0.00 78 1006.7
20260505205527 61 134 0.9 3.5 0.00 0.00 0.00 78 1006.8
20260505204521 62 148 1.7 3.5 0.00 0.00 0.00 76 1006.6
20260505203515 62 143 1.7 5.2 0.00 0.00 0.00 75 1006.7
20260505202527 62 144 1.7 6.1 0.00 0.00 0.00 75 1006.9
20260505201516 62 146 1.7 5.2 0.00 0.00 0.00 74 1007.0
20260505200516 63 152 1.7 3.5 0.00 0.00 0.00 74 1007.1
20260505195536 63 134 0.9 3.5 0.00 0.00 0.00 74 1007.3
20260505194515 63 90 0.9 2.6 0.00 0.00 0.00 73 1007.4
20260505193556 63 107 0.9 1.7 0.00 0.00 0.00 73 1007.5
20260505192526 64 118 0.0 0.9 0.00 0.00 0.00 72 1007.7
20260505191515 64 116 0.9 3.5 0.00 0.00 0.00 72 1007.6
20260505190515 64 138 1.7 3.5 0.00 0.00 0.00 72 1007.3
20260505185515 64 112 0.9 2.6 0.00 0.00 0.00 71 1007.2
20260505184525 65 118 0.9 3.5 0.00 0.00 0.00 70 1007.2
20260505183539 65 143 0.9 2.6 0.00 0.00 0.00 70 1007.3
20260505182601 66 130 0.9 1.7 0.00 0.00 0.00 69 1007.3
20260505181517 66 74 0.0 2.6 0.00 0.00 0.00 69 1007.4
20260505180516 66 52 0.9 5.2 0.00 0.00 0.00 68 1007.4
20260505175518 67 78 0.9 3.5 0.00 0.00 0.00 67 1007.4
20260505174518 67 116 0.9 5.2 0.00 0.00 0.00 66 1007.5
20260505173516 68 79 0.9 5.2 0.00 0.00 0.00 66 1007.7
20260505172536 68 80 1.7 6.1 0.00 0.00 0.00 65 1007.7
20260505171516 69 81 1.7 6.1 0.00 0.00 0.00 64 1007.6
20260505170516 70 115 1.7 5.2 0.00 0.00 0.00 63 1007.6
20260505165516 71 122 1.7 3.5 0.00 0.00 0.00 61 1007.6
20260505164536 72 84 0.9 2.6 0.00 0.00 0.00 60 1007.6
20260505163516 71 61 1.7 6.1 0.00 0.00 0.00 60 1007.6
20260505162520 71 68 1.7 5.2 0.00 0.00 0.00 60 1007.7
20260505161536 71 62 1.7 5.2 0.00 0.00 0.00 59 1007.8
20260505160517 72 97 1.7 5.2 0.00 0.00 0.00 58 1007.9
20260505152515 73 62 1.7 5.2 0.00 0.00 0.00 57 1008.0
20260505151528 71 86 1.7 5.2 0.00 0.00 0.00 59 1008.1
20260505150521 72 77 1.7 5.2 0.00 0.00 0.00 59 1008.0
20260505140524 76 35 2.6 6.1 0.00 0.00 0.00 49 1008.2
20260505124516 75 87 0.9 3.5 0.00 0.00 0.00 44 1008.7
20260505123516 75 16 2.6 6.1 0.00 0.00 0.00 47 1008.9
20260505122526 74 49 1.7 6.1 0.00 0.00 0.00 48 1009.0
20260505121535 74 45 1.7 3.5 0.00 0.00 0.00 49 1009.0
20260505120519 74 30 3.5 8.7 0.00 0.00 0.00 51 1008.9
20260505115515 74 22 1.7 6.1 0.00 0.00 0.00 50 1009.0
20260505114522 75 45 2.6 7.8 0.00 0.00 0.00 49 1009.0
20260505113518 74 69 0.9 2.6 0.00 0.00 0.00 48 1009.0
20260505112516 74 37 2.6 7.0 0.00 0.00 0.00 49 1009.2
20260505111515 73 19 3.5 6.1 0.00 0.00 0.00 49 1009.2
20260505110516 73 40 2.6 7.0 0.00 0.00 0.00 51 1009.1
20260505101523 72 26 1.7 5.2 0.00 0.00 0.00 45 1009.7
20260505100516 71 23 2.6 5.2 0.00 0.00 0.00 44 1009.7
20260505095516 71 29 1.7 5.2 0.00 0.00 0.00 44 1009.8
20260505094515 71 30 1.7 3.5 0.00 0.00 0.00 44 1009.8
20260505093519 70 43 1.7 6.1 0.00 0.00 0.00 46 1009.8
20260505092520 70 17 1.7 5.2 0.00 0.00 0.00 46 1010.0